• In Deutschland
  • Länderverzeichnis
  • Für 7 Tage
  • Wassertemperatur
  • Satellitenkarten
  • Wetterkarte
  • Widgets
  • user-avatar
    Anmelden

    Stündliche Wetter Brisbane

    Heute, 28 Juni, Mittwoch

    Zeit Temperatur Niederschläge Wind Luftdruck Luftfeuchtigkeit
    00:00 +15°C° 0 mm 1 m/S 766 mmHg 89%
    01:00 +15°C° 0 mm 1 m/S 766 mmHg 89%
    02:00 +14°C° 0 mm 1 m/S 766 mmHg 90%
    03:00 +14°C° 0 mm 1 m/S 766 mmHg 91%
    04:00 +14°C° 0 mm 2 m/S 766 mmHg 91%
    05:00 +14°C° 0 mm 2 m/S 766 mmHg 92%
    06:00 +14°C° 0 mm 1 m/S 766 mmHg 92%
    07:00 +14°C° 0 mm 1 m/S 766 mmHg 92%
    08:00 +16°C° 0 mm 1 m/S 766 mmHg 85%
    09:00 +20°C° 0 mm 1 m/S 766 mmHg 77%
    10:00 +23°C° 0 mm 1 m/S 766 mmHg 70%
    11:00 +23°C° 0 mm 2 m/S 766 mmHg 67%
    12:00 +24°C° 0 mm 2 m/S 766 mmHg 64%
    13:00 +25°C° 0 mm 3 m/S 765 mmHg 62%
    14:00 +24°C° 0 mm 3 m/S 765 mmHg 65%
    15:00 +22°C° 0 mm 3 m/S 765 mmHg 68%
    16:00 +21°C° 0 mm 3 m/S 765 mmHg 72%
    17:00 +20°C° 0 mm 3 m/S 765 mmHg 77%
    18:00 +19°C° 0 mm 3 m/S 765 mmHg 82%
    19:00 +17°C° 0 mm 3 m/S 765 mmHg 87%
    20:00 +17°C° 0 mm 3 m/S 765 mmHg 87%
    21:00 +17°C° 0 mm 3 m/S 765 mmHg 88%
    22:00 +16°C° 0 mm 3 m/S 765 mmHg 89%
    23:00 +16°C° 0 mm 3 m/S 765 mmHg 90%

    Morgen, 29 Juni, Donnerstag

    Zeit Temperatur Niederschläge Wind Luftdruck Luftfeuchtigkeit
    00:00 +16°C° 0 mm 3 m/S 765 mmHg 91%
    01:00 +14°C° 0 mm 3 m/S 765 mmHg 91%
    02:00 +14°C° 0 mm 3 m/S 765 mmHg 92%
    03:00 +14°C° 0 mm 3 m/S 765 mmHg 92%
    04:00 +14°C° 0 mm 2 m/S 765 mmHg 93%
    05:00 +14°C° 0 mm 2 m/S 765 mmHg 93%
    06:00 +14°C° 0 mm 2 m/S 765 mmHg 93%
    07:00 +14°C° 0 mm 2 m/S 765 mmHg 93%
    08:00 +17°C° 0 mm 3 m/S 765 mmHg 85%
    09:00 +19°C° 0 mm 3 m/S 765 mmHg 78%
    10:00 +21°C° 0 mm 4 m/S 764 mmHg 70%
    11:00 +22°C° 0 mm 4 m/S 764 mmHg 66%
    12:00 +23°C° 0 mm 4 m/S 763 mmHg 63%
    13:00 +25°C° 0 mm 5 m/S 762 mmHg 59%
    14:00 +25°C° 0 mm 5 m/S 762 mmHg 62%
    15:00 +25°C° 0 mm 5 m/S 761 mmHg 65%
    16:00 +23°C° 0 mm 5 m/S 761 mmHg 67%
    17:00 +22°C° 0 mm 5 m/S 761 mmHg 71%
    18:00 +21°C° 0 mm 5 m/S 761 mmHg 75%
    19:00 +20°C° 0 mm 5 m/S 761 mmHg 78%
    20:00 +19°C° 0 mm 5 m/S 762 mmHg 79%
    21:00 +19°C° 0 mm 5 m/S 762 mmHg 80%
    22:00 +19°C° 0 mm 5 m/S 762 mmHg 80%
    23:00 +17°C° 0,5 mm 5 m/S 762 mmHg 84%

    übermorgen, 30 Juni, Freitag

    Zeit Temperatur Niederschläge Wind Luftdruck Luftfeuchtigkeit
    00:00 +18°C° 0,5 mm 4 m/S 762 mmHg 87%
    01:00 +18°C° 0,5 mm 4 m/S 762 mmHg 90%
    02:00 +17°C° 1,3 mm 4 m/S 762 mmHg 90%
    03:00 +16°C° 1,3 mm 5 m/S 762 mmHg 91%
    04:00 +16°C° 1,3 mm 5 m/S 762 mmHg 91%
    05:00 +15°C° 0,4 mm 5 m/S 762 mmHg 90%
    06:00 +14°C° 0,4 mm 5 m/S 763 mmHg 89%
    07:00 +14°C° 0,4 mm 5 m/S 764 mmHg 87%
    08:00 +15°C° 0 mm 5 m/S 764 mmHg 82%
    09:00 +15°C° 0 mm 5 m/S 764 mmHg 77%
    10:00 +16°C° 0 mm 5 m/S 765 mmHg 72%
    11:00 +17°C° 0 mm 5 m/S 764 mmHg 65%
    12:00 +20°C° 0 mm 5 m/S 764 mmHg 58%
    13:00 +21°C° 0 mm 5 m/S 763 mmHg 51%
    14:00 +20°C° 0 mm 5 m/S 763 mmHg 54%
    15:00 +20°C° 0 mm 5 m/S 764 mmHg 58%
    16:00 +19°C° 0 mm 5 m/S 764 mmHg 62%
    17:00 +17°C° 0 mm 5 m/S 764 mmHg 66%
    18:00 +15°C° 0 mm 5 m/S 765 mmHg 70%
    19:00 +13°C° 0 mm 5 m/S 766 mmHg 74%
    20:00 +13°C° 0 mm 5 m/S 767 mmHg 76%
    21:00 +12°C° 0 mm 5 m/S 767 mmHg 78%
    22:00 +12°C° 0 mm 5 m/S 768 mmHg 80%
    23:00 +10°C° 0 mm 6 m/S 768 mmHg 80%

    1 Juli, Samstag

    Zeit Temperatur Niederschläge Wind Luftdruck Luftfeuchtigkeit
    00:00 +10°C° 0 mm 6 m/S 767 mmHg 80%
    01:00 +10°C° 0 mm 6 m/S 767 mmHg 80%
    02:00 +9°C° 0 mm 6 m/S 767 mmHg 75%
    03:00 +9°C° 0 mm 6 m/S 768 mmHg 71%
    04:00 +8°C° 0 mm 6 m/S 768 mmHg 67%
    05:00 +8°C° 0 mm 5 m/S 768 mmHg 67%
    06:00 +7°C° 0 mm 5 m/S 768 mmHg 67%
    07:00 +7°C° 0 mm 5 m/S 769 mmHg 67%
    08:00 +9°C° 0 mm 5 m/S 769 mmHg 65%
    09:00 +12°C° 0 mm 5 m/S 769 mmHg 63%
    10:00 +14°C° 0 mm 5 m/S 769 mmHg 60%
    11:00 +15°C° 0 mm 5 m/S 769 mmHg 58%
    12:00 +17°C° 0 mm 4 m/S 768 mmHg 56%
    13:00 +19°C° 0 mm 4 m/S 767 mmHg 53%
    14:00 +18°C° 0 mm 4 m/S 767 mmHg 56%
    15:00 +18°C° 0 mm 4 m/S 767 mmHg 59%
    16:00 +17°C° 0 mm 4 m/S 767 mmHg 62%
    17:00 +15°C° 0 mm 4 m/S 767 mmHg 68%
    18:00 +13°C° 0 mm 4 m/S 768 mmHg 74%
    19:00 +11°C° 0 mm 3 m/S 768 mmHg 80%
    20:00 +10°C° 0 mm 3 m/S 769 mmHg 81%
    21:00 +10°C° 0 mm 3 m/S 769 mmHg 82%
    22:00 +9°C° 0 mm 3 m/S 769 mmHg 84%
    23:00 +9°C° 0 mm 3 m/S 769 mmHg 84%

    2 Juli, Sonntag

    Zeit Temperatur Niederschläge Wind Luftdruck Luftfeuchtigkeit
    00:00 +9°C° 0 mm 3 m/S 768 mmHg 84%
    01:00 +9°C° 0 mm 3 m/S 768 mmHg 84%
    02:00 +8°C° 0 mm 3 m/S 768 mmHg 84%
    03:00 +8°C° 0 mm 3 m/S 768 mmHg 84%
    04:00 +8°C° 0 mm 3 m/S 768 mmHg 84%
    05:00 +8°C° 0 mm 3 m/S 768 mmHg 84%
    06:00 +8°C° 0 mm 3 m/S 768 mmHg 84%
    07:00 +8°C° 0 mm 3 m/S 769 mmHg 84%
    08:00 +11°C° 0 mm 3 m/S 769 mmHg 78%
    09:00 +14°C° 0 mm 3 m/S 768 mmHg 72%
    10:00 +17°C° 0 mm 3 m/S 768 mmHg 66%
    11:00 +18°C° 0 mm 3 m/S 768 mmHg 65%
    12:00 +19°C° 0 mm 3 m/S 767 mmHg 63%
    13:00 +20°C° 0 mm 3 m/S 766 mmHg 62%
    14:00 +20°C° 0 mm 3 m/S 766 mmHg 65%
    15:00 +19°C° 0 mm 3 m/S 766 mmHg 68%
    16:00 +19°C° 0 mm 3 m/S 766 mmHg 72%
    17:00 +17°C° 0 mm 3 m/S 766 mmHg 78%
    18:00 +16°C° 0 mm 3 m/S 766 mmHg 85%
    19:00 +14°C° 0 mm 2 m/S 767 mmHg 92%
    20:00 +13°C° 0 mm 2 m/S 767 mmHg 93%
    21:00 +13°C° 0 mm 2 m/S 767 mmHg 93%
    22:00 +12°C° 0 mm 1 m/S 767 mmHg 94%
    23:00 +12°C° 0 mm 1 m/S 767 mmHg 94%

    3 Juli, Montag

    Zeit Temperatur Niederschläge Wind Luftdruck Luftfeuchtigkeit
    00:00 +12°C° 0 mm 1 m/S 766 mmHg 95%
    01:00 +12°C° 0 mm 1 m/S 766 mmHg 95%
    02:00 +11°C° 0,1 mm 1 m/S 766 mmHg 96%
    03:00 +11°C° 0,1 mm 1 m/S 766 mmHg 97%
    04:00 +9°C° 0,1 mm 0 m/S 765 mmHg 97%
    05:00 +11°C° 0 mm 1 m/S 765 mmHg 97%
    06:00 +11°C° 0 mm 1 m/S 766 mmHg 97%
    07:00 +12°C° 0 mm 2 m/S 766 mmHg 97%
    08:00 +14°C° 0 mm 2 m/S 766 mmHg 90%
    09:00 +17°C° 0 mm 2 m/S 766 mmHg 83%
    10:00 +19°C° 0 mm 2 m/S 766 mmHg 76%
    11:00 +20°C° 0 mm 2 m/S 765 mmHg 70%
    12:00 +21°C° 0 mm 3 m/S 764 mmHg 65%
    13:00 +22°C° 0 mm 3 m/S 763 mmHg 59%
    14:00 +22°C° 0 mm 3 m/S 762 mmHg 63%
    15:00 +22°C° 0 mm 4 m/S 762 mmHg 66%
    16:00 +21°C° 0 mm 4 m/S 762 mmHg 69%
    17:00 +20°C° 0 mm 4 m/S 762 mmHg 75%
    18:00 +19°C° 0 mm 4 m/S 763 mmHg 81%
    19:00 +17°C° 0 mm 4 m/S 763 mmHg 87%
    20:00 +17°C° 0,1 mm 4 m/S 763 mmHg 88%
    21:00 +16°C° 0,1 mm 5 m/S 763 mmHg 89%
    22:00 +16°C° 0,1 mm 5 m/S 763 mmHg 90%
    23:00 +17°C° 0,1 mm 4 m/S 762 mmHg 88%
    Mehr zeigen